KD5OH Weather Reports


Display with metric or nautical units.
time (UTC)temp
F
wind
direction
speed
MPH
gust
MPH
rain 1hr
in
rain 24hr
in
rain mn
in
humidity
%
barometer
mb
20260503211649 72 107 1.0 6.0 0.00 0.00 0.00 34 1019.6
20260503210121 71 128 4.0 7.0 0.00 0.00 0.00 36 1020.1
20260503204638 72 162 5.0 8.0 0.00 0.00 0.00 34 1020.4
20260503203130 71 210 4.0 9.0 0.00 0.00 0.00 36 1020.8
20260503201626 71 113 2.0 6.0 0.00 0.00 0.00 36 1021.0
20260503200159 71 128 4.0 7.0 0.00 0.00 0.00 36 1021.2
20260503194630 71 136 5.0 10.0 0.00 0.00 0.00 35 1021.4
20260503193126 71 246 3.0 7.0 0.00 0.00 0.00 35 1021.6
20260503191638 70 235 0.0 8.0 0.00 0.00 0.00 37 1021.6
20260503190134 69 150 2.0 8.0 0.00 0.00 0.00 40 1021.8
20260503183122 67 256 3.0 7.0 0.00 0.00 0.00 43 1022.5
20260503181633 66 256 3.0 8.0 0.00 0.00 0.00 43 1022.7
20260503180124 65 239 2.0 7.0 0.00 0.00 0.00 45 1022.8
20260503174639 65 221 3.0 6.0 0.00 0.00 0.00 44 1023.1
20260503173130 65 277 1.0 5.0 0.00 0.00 0.00 45 1023.3
20260503171626 65 260 2.0 6.0 0.00 0.00 0.00 46 1023.3
20260503170138 63 21 0.0 5.0 0.00 0.00 0.00 47 1023.3
20260503160134 59 20 2.0 4.0 0.00 0.00 0.00 56 1023.9
20260503150129 57 310 1.0 4.0 0.00 0.00 0.00 59 1024.1
20260503140140 51 6 0.0 0.0 0.00 0.00 0.00 69 1023.9
20260503130137 44 360 0.0 0.0 0.00 0.00 0.00 75 1023.6
20260503120155 45 91 0.0 0.0 0.00 0.00 0.00 75 1022.8
20260503110128 45 68 0.0 1.0 0.00 0.00 0.00 74 1023.1
20260503100124 45 313 0.0 0.0 0.00 0.00 0.00 75 1023.1
20260503090141 47 20 1.0 3.0 0.00 0.00 0.00 73 1023.3
20260503080131 48 355 1.0 2.0 0.00 0.00 0.00 72 1024.0
20260503071633 50 9 0.0 0.0 0.00 0.00 0.00 69 1024.2
20260503070126 50 352 0.0 0.0 0.00 0.00 0.00 68 1024.2
20260503060122 50 352 0.0 0.0 0.00 0.00 0.00 67 1023.8
20260503054655 51 170 0.0 1.0 0.00 0.00 0.00 65 1023.7
20260503053150 53 170 0.0 0.0 0.00 0.00 0.00 62 1023.8
20260503051640 54 161 0.0 0.0 0.00 0.00 0.00 60 1023.5
20260503050133 54 161 0.0 2.0 0.00 0.00 0.00 59 1023.4
20260503044647 54 283 0.0 2.0 0.00 0.00 0.00 58 1023.5
20260503043138 55 8 0.0 1.0 0.00 0.00 0.00 59 1023.4
20260503041633 55 8 0.0 1.0 0.00 0.00 0.00 56 1023.4
20260503040125 56 8 0.0 0.0 0.00 0.00 0.00 59 1023.3
20260503034658 56 8 1.0 2.0 0.00 0.00 0.00 56 1023.4
20260503033131 57 9 0.0 2.0 0.00 0.00 0.00 57 1023.4
20260503031622 59 37 0.0 0.0 0.00 0.00 0.00 55 1023.2
20260503030140 60 37 0.0 1.0 0.00 0.00 0.00 54 1023.1
20260503024654 60 35 0.0 1.0 0.00 0.00 0.00 53 1022.9
20260503023124 60 279 0.0 0.0 0.00 0.00 0.00 51 1022.9
20260503021637 61 279 0.0 0.0 0.00 0.00 0.00 48 1022.9
20260503020128 61 279 0.0 0.0 0.00 0.00 0.00 46 1022.7
20260503014624 62 279 0.0 1.0 0.00 0.00 0.00 45 1022.6
20260503013135 63 272 1.0 2.0 0.00 0.00 0.00 40 1022.4
20260503011625 63 257 1.0 3.0 0.00 0.00 0.00 40 1022.4
20260503010122 64 258 2.0 5.0 0.00 0.00 0.00 39 1022.3
20260503004655 65 254 2.0 6.0 0.00 0.00 0.00 38 1022.3
20260503003129 66 240 3.0 8.0 0.00 0.00 0.00 36 1022.2
20260503001622 66 263 2.0 10.0 0.00 0.00 0.00 36 1022.3
20260503000135 67 255 4.0 7.0 0.00 0.00 0.00 36 1022.0
20260502233128 66 251 2.0 10.0 0.00 0.00 0.00 36 1022.0
20260502231625 67 240 6.0 12.0 0.00 0.00 0.00 36 1022.1
20260502230120 67 255 5.0 18.0 0.00 0.00 0.00 36 1022.2
20260502224636 67 246 6.0 10.0 0.00 0.00 0.00 37 1022.3
20260502223128 67 153 6.0 10.0 0.00 0.00 0.00 37 1022.3
20260502221623 66 216 4.0 7.0 0.00 0.00 0.00 37 1022.6
20260502220156 66 263 5.0 11.0 0.00 0.00 0.00 39 1022.7
20260502214629 66 234 7.0 11.0 0.00 0.00 0.00 38 1023.0
20260502213127 65 286 3.0 10.0 0.00 0.00 0.00 41 1023.2